Year,Month,Day,Hour,Minute,Value (Times are PST for temperature in C)
2012,06,01,00,00,12.20
2012,06,01,00,01,12.20
2012,06,01,00,02,12.20
2012,06,01,00,03,12.20
2012,06,01,00,04,12.20
2012,06,01,00,05,12.30
2012,06,01,00,06,12.30
2012,06,01,00,07,12.30
2012,06,01,00,08,12.30
2012,06,01,00,09,12.30
2012,06,01,00,10,12.30
2012,06,01,00,11,12.30
2012,06,01,00,12,12.30
2012,06,01,00,13,12.30
2012,06,01,00,14,12.30
2012,06,01,00,15,12.30
2012,06,01,00,16,12.30
2012,06,01,00,17,12.30
2012,06,01,00,18,12.30
2012,06,01,00,19,12.30
2012,06,01,00,20,12.30
2012,06,01,00,21,12.30
2012,06,01,00,22,12.30
2012,06,01,00,23,12.30
2012,06,01,00,24,12.30
2012,06,01,00,25,12.30
2012,06,01,00,26,12.30
2012,06,01,00,27,12.30
2012,06,01,00,28,12.30
2012,06,01,00,29,12.30
2012,06,01,00,30,12.30
2012,06,01,00,31,12.30
2012,06,01,00,32,12.30
2012,06,01,00,33,12.30
2012,06,01,00,34,12.30
2012,06,01,00,35,12.30
2012,06,01,00,36,12.30
2012,06,01,00,37,12.30
2012,06,01,00,38,12.30
2012,06,01,00,39,12.30
2012,06,01,00,40,12.30
2012,06,01,00,41,12.30
2012,06,01,00,42,12.30
2012,06,01,00,43,12.30
2012,06,01,00,44,12.30
2012,06,01,00,45,12.40
2012,06,01,00,46,12.40
2012,06,01,00,47,12.40
2012,06,01,00,48,12.40
2012,06,01,00,49,12.40
2012,06,01,00,50,12.40
2012,06,01,00,51,12.40
2012,06,01,00,52,12.40
2012,06,01,00,53,12.40
2012,06,01,00,54,12.40
2012,06,01,00,55,12.40
2012,06,01,00,56,12.40
2012,06,01,00,57,12.40
2012,06,01,00,58,12.40
2012,06,01,00,59,12.40
2012,06,01,01,00,12.40
2012,06,01,01,01,12.40
2012,06,01,01,02,12.40
2012,06,01,01,03,12.40
2012,06,01,01,04,12.40
2012,06,01,01,05,12.40
2012,06,01,01,06,12.40
2012,06,01,01,07,12.40
2012,06,01,01,08,12.40
2012,06,01,01,09,12.40
2012,06,01,01,10,12.40
2012,06,01,01,11,12.40
2012,06,01,01,12,12.40
2012,06,01,01,13,12.40
2012,06,01,01,14,12.40
2012,06,01,01,15,12.40
2012,06,01,01,16,12.40
2012,06,01,01,17,12.40
2012,06,01,01,18,12.40
2012,06,01,01,19,12.40
2012,06,01,01,20,12.40
2012,06,01,01,21,12.40
2012,06,01,01,22,12.40
2012,06,01,01,23,12.40
2012,06,01,01,24,12.40
2012,06,01,01,25,12.40
2012,06,01,01,26,12.40
2012,06,01,01,27,12.40
2012,06,01,01,28,12.40
2012,06,01,01,29,12.40
2012,06,01,01,30,12.40
2012,06,01,01,31,12.40
2012,06,01,01,32,12.40
2012,06,01,01,33,12.40
2012,06,01,01,34,12.40
2012,06,01,01,35,12.40
2012,06,01,01,36,12.40
2012,06,01,01,37,12.40
2012,06,01,01,38,12.40
2012,06,01,01,39,12.40
2012,06,01,01,40,12.40
2012,06,01,01,41,12.40
2012,06,01,01,42,12.40
2012,06,01,01,43,12.40
2012,06,01,01,44,12.40
2012,06,01,01,45,12.40
2012,06,01,01,46,12.40
2012,06,01,01,47,12.40
2012,06,01,01,48,12.40
2012,06,01,01,49,12.50
2012,06,01,01,50,12.50
2012,06,01,01,51,12.50
2012,06,01,01,52,12.50
2012,06,01,01,53,12.50
2012,06,01,01,54,12.50
2012,06,01,01,55,12.50
2012,06,01,01,56,12.50
2012,06,01,01,57,12.50
2012,06,01,01,58,12.50
2012,06,01,01,59,12.50
2012,06,01,02,00,12.40
2012,06,01,02,01,12.40
2012,06,01,02,02,12.40
2012,06,01,02,03,12.40
2012,06,01,02,04,12.40
2012,06,01,02,05,12.40
2012,06,01,02,06,12.40
2012,06,01,02,07,12.40
2012,06,01,02,08,12.40
2012,06,01,02,09,12.40
2012,06,01,02,10,12.40
2012,06,01,02,11,12.40
2012,06,01,02,12,12.40
2012,06,01,02,13,12.40
2012,06,01,02,14,12.40
2012,06,01,02,15,12.40
2012,06,01,02,16,12.40
2012,06,01,02,17,12.40
2012,06,01,02,18,12.40
2012,06,01,02,19,12.40
2012,06,01,02,20,12.40
2012,06,01,02,21,12.40
2012,06,01,02,22,12.40
2012,06,01,02,23,12.40
2012,06,01,02,24,12.40
2012,06,01,02,25,12.40
2012,06,01,02,26,12.40
2012,06,01,02,27,12.40
2012,06,01,02,28,12.40
2012,06,01,02,29,12.50
2012,06,01,02,30,12.50
2012,06,01,02,31,12.50
2012,06,01,02,32,12.50
2012,06,01,02,33,12.50
2012,06,01,02,34,12.50
2012,06,01,02,35,12.50
2012,06,01,02,36,12.50
2012,06,01,02,37,12.50
2012,06,01,02,38,12.40
2012,06,01,02,39,12.40
2012,06,01,02,40,12.40
2012,06,01,02,41,12.40
2012,06,01,02,42,12.40
2012,06,01,02,43,12.40
2012,06,01,02,44,12.40
2012,06,01,02,45,12.40
2012,06,01,02,46,12.40
2012,06,01,02,47,12.40
2012,06,01,02,48,12.40
2012,06,01,02,49,12.40
2012,06,01,02,50,12.40
2012,06,01,02,51,12.40
2012,06,01,02,52,12.40
2012,06,01,02,53,12.40
2012,06,01,02,54,12.40
2012,06,01,02,55,12.40
2012,06,01,02,56,12.50
2012,06,01,02,57,12.50
2012,06,01,02,58,12.50
2012,06,01,02,59,12.50
2012,06,01,03,00,12.50
2012,06,01,03,01,12.50
2012,06,01,03,02,12.50
2012,06,01,03,03,12.50
2012,06,01,03,04,12.50
2012,06,01,03,05,12.50
2012,06,01,03,06,12.50
2012,06,01,03,07,12.50
2012,06,01,03,08,12.50
2012,06,01,03,09,12.50
2012,06,01,03,10,12.50
2012,06,01,03,11,12.50
2012,06,01,03,12,12.50
2012,06,01,03,13,12.50
2012,06,01,03,14,12.50
2012,06,01,03,15,12.50
2012,06,01,03,16,12.50
2012,06,01,03,17,12.50
2012,06,01,03,18,12.50
2012,06,01,03,19,12.50
2012,06,01,03,20,12.50
2012,06,01,03,21,12.50
2012,06,01,03,22,12.50
2012,06,01,03,23,12.50
2012,06,01,03,24,12.50
2012,06,01,03,25,12.50
2012,06,01,03,26,12.40
2012,06,01,03,27,12.40
2012,06,01,03,28,12.40
2012,06,01,03,29,12.40
2012,06,01,03,30,12.40
2012,06,01,03,31,12.40
2012,06,01,03,32,12.40
2012,06,01,03,33,12.40
2012,06,01,03,34,12.40
2012,06,01,03,35,12.40
2012,06,01,03,36,12.40
2012,06,01,03,37,12.40
2012,06,01,03,38,12.40
2012,06,01,03,39,12.40
2012,06,01,03,40,12.40
2012,06,01,03,41,12.40
2012,06,01,03,42,12.40
2012,06,01,03,43,12.40
2012,06,01,03,44,12.40
2012,06,01,03,45,12.40
2012,06,01,03,46,12.50
2012,06,01,03,47,12.50
2012,06,01,03,48,12.50
2012,06,01,03,49,12.50
2012,06,01,03,50,12.50
2012,06,01,03,51,12.50
2012,06,01,03,52,12.50
2012,06,01,03,53,12.50
2012,06,01,03,54,12.50
2012,06,01,03,55,12.50
2012,06,01,03,56,12.50
2012,06,01,03,57,12.50
2012,06,01,03,58,12.50
2012,06,01,03,59,12.50
2012,06,01,04,00,12.50
2012,06,01,04,01,12.50
2012,06,01,04,02,12.50
2012,06,01,04,03,12.50
2012,06,01,04,04,12.50
2012,06,01,04,05,12.50
2012,06,01,04,06,12.50
2012,06,01,04,07,12.50
2012,06,01,04,08,12.50
2012,06,01,04,09,12.50
2012,06,01,04,10,12.50
2012,06,01,04,11,12.60
2012,06,01,04,12,12.60
2012,06,01,04,13,12.60
2012,06,01,04,14,12.60
2012,06,01,04,15,12.60
2012,06,01,04,16,12.60
2012,06,01,04,17,12.60
2012,06,01,04,18,12.60
2012,06,01,04,19,12.60
2012,06,01,04,20,12.60
2012,06,01,04,21,12.60
2012,06,01,04,22,12.60
2012,06,01,04,23,12.60
2012,06,01,04,24,12.60
2012,06,01,04,25,12.60
2012,06,01,04,26,12.60
2012,06,01,04,27,12.60
2012,06,01,04,28,12.60
2012,06,01,04,29,12.60
2012,06,01,04,30,12.60
2012,06,01,04,31,12.60
2012,06,01,04,32,12.70
2012,06,01,04,33,12.70
2012,06,01,04,34,12.70
2012,06,01,04,35,12.70
2012,06,01,04,36,12.70
2012,06,01,04,37,12.70
2012,06,01,04,38,12.60
2012,06,01,04,39,12.50
2012,06,01,04,40,12.40
2012,06,01,04,41,12.40
2012,06,01,04,42,12.30
2012,06,01,04,43,12.30
2012,06,01,04,44,12.30
2012,06,01,04,45,12.30
2012,06,01,04,46,12.30
2012,06,01,04,47,12.30
2012,06,01,04,48,12.30
2012,06,01,04,49,12.20
2012,06,01,04,50,12.20
2012,06,01,04,51,12.20
2012,06,01,04,52,12.10
2012,06,01,04,53,12.10
2012,06,01,04,54,12.10
2012,06,01,04,55,12.00
2012,06,01,04,56,12.00
2012,06,01,04,57,12.00
2012,06,01,04,58,12.00
2012,06,01,04,59,12.00
2012,06,01,05,00,12.10
2012,06,01,05,01,12.20
2012,06,01,05,02,12.20
2012,06,01,05,03,12.30
2012,06,01,05,04,12.30
2012,06,01,05,05,12.30
2012,06,01,05,06,12.30
2012,06,01,05,07,12.30
2012,06,01,05,08,12.30
2012,06,01,05,09,12.30
2012,06,01,05,10,12.30
2012,06,01,05,11,12.30
2012,06,01,05,12,12.30
2012,06,01,05,13,12.30
2012,06,01,05,14,12.30
2012,06,01,05,15,12.30
2012,06,01,05,16,12.30
2012,06,01,05,17,12.30
2012,06,01,05,18,12.30
2012,06,01,05,19,12.30
2012,06,01,05,20,12.30
2012,06,01,05,21,12.30
2012,06,01,05,22,12.30
2012,06,01,05,23,12.30
2012,06,01,05,24,12.30
2012,06,01,05,25,12.20
2012,06,01,05,26,12.20
2012,06,01,05,27,12.20
2012,06,01,05,28,12.20
2012,06,01,05,29,12.10
2012,06,01,05,30,12.10
2012,06,01,05,31,12.10
2012,06,01,05,32,12.10
2012,06,01,05,33,12.00
2012,06,01,05,34,12.00
2012,06,01,05,35,12.00
2012,06,01,05,36,12.00
2012,06,01,05,37,12.00
2012,06,01,05,38,12.00
2012,06,01,05,39,11.90
2012,06,01,05,40,11.90
2012,06,01,05,41,11.90
2012,06,01,05,42,11.90
2012,06,01,05,43,11.90
2012,06,01,05,44,11.90
2012,06,01,05,45,11.90
2012,06,01,05,46,11.90
2012,06,01,05,47,11.90
2012,06,01,05,48,11.90
2012,06,01,05,49,11.90
2012,06,01,05,50,11.90
2012,06,01,05,51,11.90
2012,06,01,05,52,11.90
2012,06,01,05,53,11.90
2012,06,01,05,54,11.90
2012,06,01,05,55,11.90
2012,06,01,05,56,11.90
2012,06,01,05,57,11.90
2012,06,01,05,58,11.90
2012,06,01,05,59,11.90
2012,06,01,06,00,11.90
2012,06,01,06,01,11.90
2012,06,01,06,02,11.90
2012,06,01,06,03,11.90
2012,06,01,06,04,11.80
2012,06,01,06,05,11.80
2012,06,01,06,06,11.80
2012,06,01,06,07,11.80
2012,06,01,06,08,11.70
2012,06,01,06,09,11.70
2012,06,01,06,10,11.70
2012,06,01,06,11,11.70
2012,06,01,06,12,11.70
2012,06,01,06,13,11.70
2012,06,01,06,14,11.70
2012,06,01,06,15,11.70
2012,06,01,06,16,11.70
2012,06,01,06,17,11.70
2012,06,01,06,18,11.70
2012,06,01,06,19,11.70
2012,06,01,06,20,11.70
2012,06,01,06,21,11.70
2012,06,01,06,22,11.60
2012,06,01,06,23,11.60
2012,06,01,06,24,11.60
2012,06,01,06,25,11.60
2012,06,01,06,26,11.60
2012,06,01,06,27,11.50
2012,06,01,06,28,11.40
2012,06,01,06,29,11.40
2012,06,01,06,30,11.40
2012,06,01,06,31,11.40
2012,06,01,06,32,11.40
2012,06,01,06,33,11.40
2012,06,01,06,34,11.40
2012,06,01,06,35,11.40
2012,06,01,06,36,11.40
2012,06,01,06,37,11.40
2012,06,01,06,38,11.40
2012,06,01,06,39,11.40
2012,06,01,06,40,11.40
2012,06,01,06,41,11.40
2012,06,01,06,42,11.40
2012,06,01,06,43,11.40
2012,06,01,06,44,11.40
2012,06,01,06,45,11.40
2012,06,01,06,46,11.40
2012,06,01,06,47,11.40
2012,06,01,06,48,11.40
2012,06,01,06,49,11.40
2012,06,01,06,50,11.40
2012,06,01,06,51,11.40
2012,06,01,06,52,11.40
2012,06,01,06,53,11.40
2012,06,01,06,54,11.40
2012,06,01,06,55,11.40
2012,06,01,06,56,11.30
2012,06,01,06,57,11.30
2012,06,01,06,58,11.30
2012,06,01,06,59,11.30
2012,06,01,07,00,11.30
2012,06,01,07,01,11.30
2012,06,01,07,02,11.30
2012,06,01,07,03,11.30
2012,06,01,07,04,11.30
2012,06,01,07,05,11.30
2012,06,01,07,06,11.30
2012,06,01,07,07,11.30
2012,06,01,07,08,11.30
2012,06,01,07,09,11.30
2012,06,01,07,10,11.40
2012,06,01,07,11,11.40
2012,06,01,07,12,11.40
2012,06,01,07,13,11.40
2012,06,01,07,14,11.40
2012,06,01,07,15,11.40
2012,06,01,07,16,11.40
2012,06,01,07,17,11.40
2012,06,01,07,18,11.50
2012,06,01,07,19,11.60
2012,06,01,07,20,11.60
2012,06,01,07,21,11.60
2012,06,01,07,22,11.60
2012,06,01,07,23,11.60
2012,06,01,07,24,11.70
2012,06,01,07,25,11.70
2012,06,01,07,26,11.70
2012,06,01,07,27,11.80
2012,06,01,07,28,11.80
2012,06,01,07,29,11.80
2012,06,01,07,30,11.80
2012,06,01,07,31,11.80
2012,06,01,07,32,11.80
2012,06,01,07,33,11.80
2012,06,01,07,34,11.90
2012,06,01,07,35,11.90
2012,06,01,07,36,11.90
2012,06,01,07,37,12.00
2012,06,01,07,38,12.00
2012,06,01,07,39,12.00
2012,06,01,07,40,12.10
2012,06,01,07,41,12.10
2012,06,01,07,42,12.10
2012,06,01,07,43,12.20
2012,06,01,07,44,12.20
2012,06,01,07,45,12.20
2012,06,01,07,46,12.20
2012,06,01,07,47,12.30
2012,06,01,07,48,12.30
2012,06,01,07,49,12.30
2012,06,01,07,50,12.30
2012,06,01,07,51,12.30
2012,06,01,07,52,12.30
2012,06,01,07,53,12.30
2012,06,01,07,54,12.30
2012,06,01,07,55,12.30
2012,06,01,07,56,12.30
2012,06,01,07,57,12.30
2012,06,01,07,58,12.30
2012,06,01,07,59,12.30
2012,06,01,08,00,12.30
2012,06,01,08,01,12.30
2012,06,01,08,02,12.30
2012,06,01,08,03,12.40
2012,06,01,08,04,12.40
2012,06,01,08,05,12.40
2012,06,01,08,06,12.40
2012,06,01,08,07,12.40
2012,06,01,08,08,12.40
2012,06,01,08,09,12.40
2012,06,01,08,10,12.50
2012,06,01,08,11,12.50
2012,06,01,08,12,12.50
2012,06,01,08,13,12.50
2012,06,01,08,14,12.60
2012,06,01,08,15,12.60
2012,06,01,08,16,12.60
2012,06,01,08,17,12.70
2012,06,01,08,18,12.70
2012,06,01,08,19,12.70
2012,06,01,08,20,12.70
2012,06,01,08,21,12.80
2012,06,01,08,22,12.80
2012,06,01,08,23,12.80
2012,06,01,08,24,12.80
2012,06,01,08,25,12.80
2012,06,01,08,26,12.80
2012,06,01,08,27,12.80
2012,06,01,08,28,12.80
2012,06,01,08,29,12.80
2012,06,01,08,30,12.80
2012,06,01,08,31,12.80
2012,06,01,08,32,12.80
2012,06,01,08,33,12.80
2012,06,01,08,34,12.80
2012,06,01,08,35,12.80
2012,06,01,08,36,12.80
2012,06,01,08,37,12.80
2012,06,01,08,38,12.80
2012,06,01,08,39,12.80
2012,06,01,08,40,12.80
2012,06,01,08,41,12.90
2012,06,01,08,42,12.90
2012,06,01,08,43,12.90
2012,06,01,08,44,12.90
2012,06,01,08,45,12.90
2012,06,01,08,46,12.90
2012,06,01,08,47,12.90
2012,06,01,08,48,12.90
2012,06,01,08,49,13.00
2012,06,01,08,50,13.00
2012,06,01,08,51,13.00
2012,06,01,08,52,13.00
2012,06,01,08,53,13.00
2012,06,01,08,54,13.10
2012,06,01,08,55,13.10
2012,06,01,08,56,13.10
2012,06,01,08,57,13.10
2012,06,01,08,58,13.10
2012,06,01,08,59,13.10
2012,06,01,09,00,13.10
2012,06,01,09,01,13.10
2012,06,01,09,02,13.10
2012,06,01,09,03,13.20
2012,06,01,09,04,13.20
2012,06,01,09,05,13.20
2012,06,01,09,06,13.20
2012,06,01,09,07,13.20
2012,06,01,09,08,13.20
2012,06,01,09,09,13.20
2012,06,01,09,10,13.30
2012,06,01,09,11,13.30
2012,06,01,09,12,13.30
2012,06,01,09,13,13.30
2012,06,01,09,14,13.30
2012,06,01,09,15,13.30
2012,06,01,09,16,13.40
2012,06,01,09,17,13.40
2012,06,01,09,18,13.50
2012,06,01,09,19,13.50
2012,06,01,09,20,13.50
2012,06,01,09,21,13.60
2012,06,01,09,22,13.60
2012,06,01,09,23,13.60
2012,06,01,09,24,13.70
2012,06,01,09,25,13.70
2012,06,01,09,26,13.70
2012,06,01,09,27,13.80
2012,06,01,09,28,13.90
2012,06,01,09,29,13.80
2012,06,01,09,30,13.80
2012,06,01,09,31,13.80
2012,06,01,09,32,13.80
2012,06,01,09,33,13.80
2012,06,01,09,34,13.80
2012,06,01,09,35,13.90
2012,06,01,09,36,13.90
2012,06,01,09,37,14.00
2012,06,01,09,38,14.00
2012,06,01,09,39,14.10
2012,06,01,09,40,14.10
2012,06,01,09,41,14.20
2012,06,01,09,42,14.20
2012,06,01,09,43,14.20
2012,06,01,09,44,14.20
2012,06,01,09,45,14.20
2012,06,01,09,46,14.20
2012,06,01,09,47,14.20
2012,06,01,09,48,14.20
2012,06,01,09,49,14.20
2012,06,01,09,50,14.20
2012,06,01,09,51,14.20
2012,06,01,09,52,14.20
2012,06,01,09,53,14.10
2012,06,01,09,54,14.10
2012,06,01,09,55,14.00
2012,06,01,09,56,14.00
2012,06,01,09,57,14.00
2012,06,01,09,58,13.90
2012,06,01,09,59,13.80
2012,06,01,10,00,13.80
2012,06,01,10,01,13.80
2012,06,01,10,02,13.70
2012,06,01,10,03,13.70
2012,06,01,10,04,13.60
2012,06,01,10,05,13.60
2012,06,01,10,06,13.70
2012,06,01,10,07,13.70
2012,06,01,10,08,13.70
2012,06,01,10,09,13.70
2012,06,01,10,10,13.70
2012,06,01,10,11,13.70
2012,06,01,10,12,13.70
2012,06,01,10,13,13.70
2012,06,01,10,14,13.60
2012,06,01,10,15,13.50
2012,06,01,10,16,13.40
2012,06,01,10,17,13.30
2012,06,01,10,18,13.30
2012,06,01,10,19,13.30
2012,06,01,10,20,13.30
2012,06,01,10,21,13.20
2012,06,01,10,22,13.20
2012,06,01,10,23,13.20
2012,06,01,10,24,13.10
2012,06,01,10,25,13.00
2012,06,01,10,26,13.00
2012,06,01,10,27,12.90
2012,06,01,10,28,12.90
2012,06,01,10,29,12.80
2012,06,01,10,30,12.80
2012,06,01,10,31,12.80
2012,06,01,10,32,12.70
2012,06,01,10,33,12.60
2012,06,01,10,34,12.60
2012,06,01,10,35,12.60
2012,06,01,10,36,12.60
2012,06,01,10,37,12.60
2012,06,01,10,38,12.60
2012,06,01,10,39,12.50
2012,06,01,10,40,12.50
2012,06,01,10,41,12.50
2012,06,01,10,42,12.60
2012,06,01,10,43,12.60
2012,06,01,10,44,12.60
2012,06,01,10,45,12.60
2012,06,01,10,46,12.60
2012,06,01,10,47,12.60
2012,06,01,10,48,12.70
2012,06,01,10,49,12.70
2012,06,01,10,50,12.70
2012,06,01,10,51,12.70
2012,06,01,10,52,12.60
2012,06,01,10,53,12.60
2012,06,01,10,54,12.60
2012,06,01,10,55,12.50
2012,06,01,10,56,12.40
2012,06,01,10,57,12.40
2012,06,01,10,58,12.40
2012,06,01,10,59,12.40
2012,06,01,11,00,12.30
2012,06,01,11,01,12.30
2012,06,01,11,02,12.30
2012,06,01,11,03,12.30
2012,06,01,11,04,12.30
2012,06,01,11,05,12.30
2012,06,01,11,06,12.40
2012,06,01,11,07,12.40
2012,06,01,11,08,12.50
2012,06,01,11,09,12.50
2012,06,01,11,10,12.50
2012,06,01,11,11,12.60
2012,06,01,11,12,12.70
2012,06,01,11,13,12.80
2012,06,01,11,14,12.80
2012,06,01,11,15,12.90
2012,06,01,11,16,13.00
2012,06,01,11,17,13.00
2012,06,01,11,18,13.10
2012,06,01,11,19,13.10
2012,06,01,11,20,13.10
2012,06,01,11,21,13.20
2012,06,01,11,22,13.20
2012,06,01,11,23,13.30
2012,06,01,11,24,13.30
2012,06,01,11,25,13.30
2012,06,01,11,26,13.30
2012,06,01,11,27,13.30
2012,06,01,11,28,13.30
2012,06,01,11,29,13.30
2012,06,01,11,30,13.30
2012,06,01,11,31,13.30
2012,06,01,11,32,13.20
2012,06,01,11,33,13.10
2012,06,01,11,34,12.90
2012,06,01,11,35,12.70
2012,06,01,11,36,12.50
2012,06,01,11,37,12.30
2012,06,01,11,38,12.10
2012,06,01,11,39,12.00
2012,06,01,11,40,12.00
2012,06,01,11,41,11.80
2012,06,01,11,42,11.80
2012,06,01,11,43,11.80
2012,06,01,11,44,11.80
2012,06,01,11,45,11.80
2012,06,01,11,46,11.80
2012,06,01,11,47,11.70
2012,06,01,11,48,11.60
2012,06,01,11,49,11.60
2012,06,01,11,50,11.60
2012,06,01,11,51,11.70
2012,06,01,11,52,11.70
2012,06,01,11,53,11.70
2012,06,01,11,54,11.70
2012,06,01,11,55,11.70
2012,06,01,11,56,11.60
2012,06,01,11,57,11.60
2012,06,01,11,58,11.60
2012,06,01,11,59,11.60
2012,06,01,12,00,11.60
2012,06,01,12,01,11.60
2012,06,01,12,02,11.60
2012,06,01,12,03,11.60
2012,06,01,12,04,11.60
2012,06,01,12,05,11.70
2012,06,01,12,06,11.80
2012,06,01,12,07,11.80
2012,06,01,12,08,11.80
2012,06,01,12,09,11.80
2012,06,01,12,10,11.90
2012,06,01,12,11,12.00
2012,06,01,12,12,12.10
2012,06,01,12,13,12.20
2012,06,01,12,14,12.30
2012,06,01,12,15,12.40
2012,06,01,12,16,12.40
2012,06,01,12,17,12.50
2012,06,01,12,18,12.50
2012,06,01,12,19,12.50
2012,06,01,12,20,12.60
2012,06,01,12,21,12.70
2012,06,01,12,22,12.80
2012,06,01,12,23,12.90
2012,06,01,12,24,12.90
2012,06,01,12,25,12.90
2012,06,01,12,26,13.00
2012,06,01,12,27,13.00
2012,06,01,12,28,13.00
2012,06,01,12,29,12.90
2012,06,01,12,30,12.90
2012,06,01,12,31,12.90
2012,06,01,12,32,12.90
2012,06,01,12,33,13.00
2012,06,01,12,34,13.10
2012,06,01,12,35,13.20
2012,06,01,12,36,13.30
2012,06,01,12,37,13.50
2012,06,01,12,38,13.70
2012,06,01,12,39,13.90
2012,06,01,12,40,14.00
2012,06,01,12,41,14.20
2012,06,01,12,42,14.40
2012,06,01,12,43,14.60
2012,06,01,12,44,14.80
2012,06,01,12,45,14.90
2012,06,01,12,46,15.20
2012,06,01,12,47,15.30
2012,06,01,12,48,15.40
2012,06,01,12,49,15.40
2012,06,01,12,50,15.30
2012,06,01,12,51,15.40
2012,06,01,12,52,15.40
2012,06,01,12,53,15.40
2012,06,01,12,54,15.50
2012,06,01,12,55,15.60
2012,06,01,12,56,15.70
2012,06,01,12,57,15.80
2012,06,01,12,58,15.90
2012,06,01,12,59,16.00
2012,06,01,13,00,16.10
2012,06,01,13,01,16.20
2012,06,01,13,02,16.30
2012,06,01,13,03,16.40
2012,06,01,13,04,16.50
2012,06,01,13,05,16.60
2012,06,01,13,06,16.70
2012,06,01,13,07,16.70
2012,06,01,13,08,16.80
2012,06,01,13,09,16.90
2012,06,01,13,10,16.90
2012,06,01,13,11,17.10
2012,06,01,13,12,17.20
2012,06,01,13,13,17.20
2012,06,01,13,14,17.30
2012,06,01,13,15,17.30
2012,06,01,13,16,17.30
2012,06,01,13,17,17.30
2012,06,01,13,18,17.30
2012,06,01,13,19,17.30
2012,06,01,13,20,17.30
2012,06,01,13,21,17.30
2012,06,01,13,22,17.40
2012,06,01,13,23,17.40
2012,06,01,13,24,17.40
2012,06,01,13,25,17.50
2012,06,01,13,26,17.50
2012,06,01,13,27,17.60
2012,06,01,13,28,17.70
2012,06,01,13,29,17.80
2012,06,01,13,30,17.90
2012,06,01,13,31,18.00
2012,06,01,13,32,18.10
2012,06,01,13,33,18.10
2012,06,01,13,34,18.10
2012,06,01,13,35,18.10
2012,06,01,13,36,18.10
2012,06,01,13,37,18.20
2012,06,01,13,38,18.20
2012,06,01,13,39,18.30
2012,06,01,13,40,18.30
2012,06,01,13,41,18.50
2012,06,01,13,42,18.50
2012,06,01,13,43,18.60
2012,06,01,13,44,18.60
2012,06,01,13,45,18.70
2012,06,01,13,46,18.80
2012,06,01,13,47,18.80
2012,06,01,13,48,18.80
2012,06,01,13,49,18.60
2012,06,01,13,50,18.60
2012,06,01,13,51,18.50
2012,06,01,13,52,18.40
2012,06,01,13,53,18.40
2012,06,01,13,54,18.50
2012,06,01,13,55,18.50
2012,06,01,13,56,18.50
2012,06,01,13,57,18.50
2012,06,01,13,58,18.50
2012,06,01,13,59,18.60
2012,06,01,14,00,18.70
2012,06,01,14,01,18.90
2012,06,01,14,02,19.00
2012,06,01,14,03,19.10
2012,06,01,14,04,19.10
2012,06,01,14,05,19.10
2012,06,01,14,06,19.10
2012,06,01,14,07,19.10
2012,06,01,14,08,19.10
2012,06,01,14,09,19.10
2012,06,01,14,10,19.10
2012,06,01,14,11,19.10
2012,06,01,14,12,19.20
2012,06,01,14,13,19.20
2012,06,01,14,14,19.20
2012,06,01,14,15,19.30
2012,06,01,14,16,19.30
2012,06,01,14,17,19.30
2012,06,01,14,18,19.30
2012,06,01,14,19,19.20
2012,06,01,14,20,19.10
2012,06,01,14,21,19.20
2012,06,01,14,22,19.20
2012,06,01,14,23,19.30
2012,06,01,14,24,19.50
2012,06,01,14,25,19.60
2012,06,01,14,26,19.60
2012,06,01,14,27,19.70
2012,06,01,14,28,19.70
2012,06,01,14,29,19.80
2012,06,01,14,30,19.80
2012,06,01,14,31,19.80
2012,06,01,14,32,19.90
2012,06,01,14,33,19.90
2012,06,01,14,34,19.90
2012,06,01,14,35,20.10
2012,06,01,14,36,20.10
2012,06,01,14,37,20.00
2012,06,01,14,38,19.90
2012,06,01,14,39,19.90
2012,06,01,14,40,20.00
2012,06,01,14,41,20.00
2012,06,01,14,42,19.90
2012,06,01,14,43,20.00
2012,06,01,14,44,20.10
2012,06,01,14,45,20.20
2012,06,01,14,46,20.30
2012,06,01,14,47,20.40
2012,06,01,14,48,20.50
2012,06,01,14,49,20.60
2012,06,01,14,50,20.70
2012,06,01,14,51,20.60
2012,06,01,14,52,20.50
2012,06,01,14,53,20.40
2012,06,01,14,54,20.20
2012,06,01,14,55,20.10
2012,06,01,14,56,20.00
2012,06,01,14,57,19.90
2012,06,01,14,58,19.80
2012,06,01,14,59,19.80
2012,06,01,15,00,19.90
2012,06,01,15,01,19.90
2012,06,01,15,02,19.90
2012,06,01,15,03,19.80
2012,06,01,15,04,19.70
2012,06,01,15,05,19.60
2012,06,01,15,06,19.60
2012,06,01,15,07,19.50
2012,06,01,15,08,19.50
2012,06,01,15,09,19.40
2012,06,01,15,10,19.50
2012,06,01,15,11,19.60
2012,06,01,15,12,19.70
2012,06,01,15,13,19.70
2012,06,01,15,14,19.70
2012,06,01,15,15,19.70
2012,06,01,15,16,19.60
2012,06,01,15,17,19.50
2012,06,01,15,18,19.50
2012,06,01,15,19,19.50
2012,06,01,15,20,19.40
2012,06,01,15,21,19.30
2012,06,01,15,22,19.30
2012,06,01,15,23,19.30
2012,06,01,15,24,19.30
2012,06,01,15,25,19.40
2012,06,01,15,26,19.50
2012,06,01,15,27,19.50
2012,06,01,15,28,19.50
2012,06,01,15,29,19.40
2012,06,01,15,30,19.30
2012,06,01,15,31,19.20
2012,06,01,15,32,19.00
2012,06,01,15,33,18.90
2012,06,01,15,34,18.90
2012,06,01,15,35,18.90
2012,06,01,15,36,18.80
2012,06,01,15,37,18.80
2012,06,01,15,38,18.70
2012,06,01,15,39,18.70
2012,06,01,15,40,18.60
2012,06,01,15,41,18.60
2012,06,01,15,42,18.60
2012,06,01,15,43,18.50
2012,06,01,15,44,18.40
2012,06,01,15,45,18.40
2012,06,01,15,46,18.30
2012,06,01,15,47,18.20
2012,06,01,15,48,18.10
2012,06,01,15,49,18.00
2012,06,01,15,50,17.90
2012,06,01,15,51,18.00
2012,06,01,15,52,18.10
2012,06,01,15,53,18.10
2012,06,01,15,54,18.20
2012,06,01,15,55,18.20
2012,06,01,15,56,18.10
2012,06,01,15,57,18.10
2012,06,01,15,58,18.10
2012,06,01,15,59,18.10
2012,06,01,16,00,18.10
2012,06,01,16,01,18.10
2012,06,01,16,02,18.10
2012,06,01,16,03,18.20
2012,06,01,16,04,18.20
2012,06,01,16,05,18.10
2012,06,01,16,06,18.10
2012,06,01,16,07,18.10
2012,06,01,16,08,18.00
2012,06,01,16,09,17.90
2012,06,01,16,10,17.90
2012,06,01,16,11,18.10
2012,06,01,16,12,18.10
2012,06,01,16,13,18.20
2012,06,01,16,14,18.20
2012,06,01,16,15,18.30
2012,06,01,16,16,18.40
2012,06,01,16,17,18.40
2012,06,01,16,18,18.40
2012,06,01,16,19,18.40
2012,06,01,16,20,18.40
2012,06,01,16,21,18.40
2012,06,01,16,22,18.40
2012,06,01,16,23,18.40
2012,06,01,16,24,18.40
2012,06,01,16,25,18.30
2012,06,01,16,26,18.30
2012,06,01,16,27,18.30
2012,06,01,16,28,18.30
2012,06,01,16,29,18.20
2012,06,01,16,30,18.20
2012,06,01,16,31,18.20
2012,06,01,16,32,18.20
2012,06,01,16,33,18.20
2012,06,01,16,34,18.20
2012,06,01,16,35,18.20
2012,06,01,16,36,18.20
2012,06,01,16,37,18.20
2012,06,01,16,38,18.20
2012,06,01,16,39,18.20
2012,06,01,16,40,18.20
2012,06,01,16,41,18.20
2012,06,01,16,42,18.20
2012,06,01,16,43,18.20
2012,06,01,16,44,18.20
2012,06,01,16,45,18.20
2012,06,01,16,46,18.10
2012,06,01,16,47,18.10
2012,06,01,16,48,18.00
2012,06,01,16,49,17.90
2012,06,01,16,50,17.90
2012,06,01,16,51,17.90
2012,06,01,16,52,17.90
2012,06,01,16,53,17.90
2012,06,01,16,54,17.90
2012,06,01,16,55,17.90
2012,06,01,16,56,17.90
2012,06,01,16,57,17.90
2012,06,01,16,58,17.90
2012,06,01,16,59,17.90
2012,06,01,17,00,17.90
2012,06,01,17,01,17.90
2012,06,01,17,02,17.80
2012,06,01,17,03,17.80
2012,06,01,17,04,17.70
2012,06,01,17,05,17.70
2012,06,01,17,06,17.60
2012,06,01,17,07,17.50
2012,06,01,17,08,17.50
2012,06,01,17,09,17.50
2012,06,01,17,10,17.50
2012,06,01,17,11,17.40
2012,06,01,17,12,17.40
2012,06,01,17,13,17.30
2012,06,01,17,14,17.30
2012,06,01,17,15,17.30
2012,06,01,17,16,17.30
2012,06,01,17,17,17.30
2012,06,01,17,18,17.30
2012,06,01,17,19,17.20